Weather History for Pompano Beach, FL

Change the Weather History Date:

Friday, April 13, 2012

  Actual Average Record
Temperature  
Mean Temperature 75 °F -  
Max Temperature 79 °F 83 °F 96 °F (1986)
Min Temperature 71 °F 66 °F 48 °F (1956)
Cooling Degree Days 10    
Growing Degree Days 25 (Base 50)    
Moisture  
Dew Point 68 °F    
Average Humidity 81    
Maximum Humidity 96    
Minimum Humidity 72    
Precipitation  
Precipitation 0.38 in - - ()
Sea Level Pressure  
Sea Level Pressure 30.07 in    
Wind  
Wind Speed 8 mph (East)    
Max Wind Speed 15 mph    
Max Gust Speed 20 mph    
Visibility 9 miles    
Events Rain    
Averages and records for this station are not official NWS values.
T = Trace of Precipitation, MM = Missing Value Source: NWS Daily Summary

Daily Weather History Graph

Daily Weather History Graph

Search for Another Location

Airport:

Trip Planner

Search our weather history database for the weather conditions in past years. The results will help you decide how hot, cold, wet, or windy it might be!

Date:

Astronomy

Apr. 13, 2012 Rise Set
Actual Time 6:58 AM EDT 7:43 PM EDT
Civil Twilight 6:35 AM EDT 8:06 PM EDT
Nautical Twilight 6:07 AM EDT 8:34 PM EDT
Astronomical Twilight 5:39 AM EDT 9:03 PM EDT
Moon 1:59 AM EDT (4/13) 1:10 PM EDT (4/13)
Length of Visible Light 13h 31m
Length of Day
12h 44m
Waning Gibbous, 48% of the Moon is Illuminated
Apr 13
Waning Gibbous
Apr 21
New
Apr 29
First Quarter
May 5
Full
May 12
Last Quarter

Hourly Weather History & Observations

Time (EDT) Temp. Dew Point Humidity Pressure Visibility Wind Dir Wind Speed Gust Speed Precip Events Conditions
12:53 AM 75.0 °F 66.9 °F 76% 30.05 in 10.0 mi ENE 6.9 mph - N/A   Clear
1:53 AM 73.9 °F 66.0 °F 76% 30.03 in 10.0 mi East 5.8 mph - N/A   Clear
2:53 AM 73.9 °F 66.9 °F 79% 30.02 in 10.0 mi ENE 4.6 mph - N/A   Partly Cloudy
3:53 AM 73.9 °F 69.1 °F 85% 30.02 in 10.0 mi ENE 4.6 mph - N/A   Partly Cloudy
4:53 AM 73.9 °F 66.9 °F 79% 30.01 in 10.0 mi East 8.1 mph - N/A   Clear
5:53 AM 73.9 °F 68.0 °F 82% 30.02 in 10.0 mi East 8.1 mph - N/A   Scattered Clouds
6:53 AM 73.0 °F 69.1 °F 87% 30.05 in 6.0 mi North 8.1 mph - 0.03 in Rain Light Rain
7:15 AM 71.6 °F - N/A% 30.05 in 2.0 mi ESE 5.8 mph - 0.22 in Rain Heavy Rain
7:19 AM 71.6 °F - N/A% 30.05 in 3.0 mi SE 8.1 mph - 0.23 in Rain Rain
7:53 AM 73.9 °F 69.1 °F 85% 30.06 in 10.0 mi East 9.2 mph - 0.23 in   Partly Cloudy
8:53 AM 75.9 °F 68.0 °F 76% 30.08 in 10.0 mi East 13.8 mph - N/A   Scattered Clouds
9:53 AM 78.1 °F 69.1 °F 74% 30.10 in 10.0 mi East 10.4 mph - N/A   Scattered Clouds
10:53 AM 77.0 °F 68.0 °F 74% 30.11 in 10.0 mi East 11.5 mph - N/A   Scattered Clouds
11:53 AM 73.0 °F 72.0 °F 96% 30.11 in 3.0 mi SE 9.2 mph - 0.11 in Rain Heavy Rain
12:53 PM 79.0 °F 69.1 °F 72% 30.09 in 10.0 mi ESE 15.0 mph - 0.00 in   Mostly Cloudy
1:53 PM 73.0 °F 68.0 °F 84% 30.09 in 10.0 mi SSE 13.8 mph 19.6 mph 0.01 in   Mostly Cloudy
2:53 PM 73.9 °F 66.9 °F 79% 30.09 in 10.0 mi SSE 5.8 mph - N/A   Mostly Cloudy
3:53 PM 75.9 °F 68.0 °F 76% 30.07 in 10.0 mi ENE 9.2 mph - N/A   Mostly Cloudy
4:53 PM 75.9 °F 68.0 °F 76% 30.05 in 10.0 mi East 11.5 mph - N/A   Mostly Cloudy
5:53 PM 75.9 °F 69.1 °F 79% 30.05 in 10.0 mi ESE 11.5 mph - N/A   Mostly Cloudy
6:53 PM 75.0 °F 70.0 °F 84% 30.06 in 10.0 mi ESE 11.5 mph - N/A   Mostly Cloudy
7:53 PM 73.9 °F 68.0 °F 82% 30.07 in 10.0 mi SSE 6.9 mph - N/A   Partly Cloudy
8:53 PM 73.9 °F 66.9 °F 79% 30.09 in 10.0 mi SE 5.8 mph - N/A   Clear
9:53 PM 73.0 °F 69.1 °F 87% 30.11 in 10.0 mi East 11.5 mph - N/A   Mostly Cloudy
10:53 PM 73.9 °F 70.0 °F 87% 30.12 in 10.0 mi ESE 12.7 mph - N/A   Mostly Cloudy
11:53 PM 73.0 °F 71.1 °F 93% 30.13 in 10.0 mi East 10.4 mph - N/A   Clear